Holland, MI

12:33 PM EDT on August 25, 2016 (GMT -0400)
Tulip City

Weather History for KBIV - June, 2012

Change the Weather History Date:

Monday, June 25, 2012

  Actual Average Record
Temperature  
Mean Temperature 68 °F 71 °F  
Max Temperature 80 °F 81 °F 93 °F (1998)
Min Temperature 57 °F 61 °F 39 °F (1979)
Degree Days  
Heating Degree Days 0 1  
Month to date heating degree days 46  
Since 1 June heating degree days 46  
Since 1 July heating degree days 6158  
Cooling Degree Days 2 6  
Month to date cooling degree days 111  
Year to date cooling degree days 153  
Since 1 June cooling degree days 111  
Growing Degree Days 18 (Base 50)    
Moisture  
Dew Point 48 °F    
Average Humidity 64    
Maximum Humidity 100    
Minimum Humidity 28    
Precipitation  
Precipitation 0.00 in 0.14 in 2.78 in (1953)
Month to date precipitation 0.91 3.59  
Year to date precipitation 16.18  
Sea Level Pressure  
Sea Level Pressure 30.06 in    
Wind  
Wind Speed 8 mph (North)    
Max Wind Speed 16 mph    
Max Gust Speed 22 mph    
Visibility 10 miles    
Events      
T = Trace of Precipitation, MM = Missing Value Source: NWS Daily Summary

Daily Weather History Graph

Daily Weather History Graph

Search for Another Location

Airport or City:

Trip Planner

Search our weather history database for the weather conditions in past years. The results will help you decide how hot, cold, wet, or windy it might be!

Date:

Astronomy

Jun. 25, 2012 Rise Set
Actual Time 6:07 AM EDT 9:26 PM EDT
Civil Twilight 5:32 AM EDT 10:01 PM EDT
Nautical Twilight 4:46 AM EDT 10:47 PM EDT
Astronomical Twilight 3:50 AM EDT 11:43 PM EDT
Moon 12:26 PM EDT 12:16 AM EDT
Length of Visible Light 16h 29m
Length of Day
15h 19m
Waxing Crescent, 34% of the Moon is Illuminated
Jun 25
Waxing Crescent
Jun 26
First Quarter
Jul 3
Full
Jul 10
Last Quarter
Jul 19
New

Hourly Weather History & Observations

Time (EDT) Temp. Dew Point Humidity Pressure Visibility Wind Dir Wind Speed Gust Speed Precip Events Conditions
12:53 AM 71.1 °F 57.9 °F 63% 29.99 in 10.0 mi NNE 10.4 mph 16.1 mph N/A   Scattered Clouds
1:53 AM 69.1 °F 55.9 °F 63% 30.00 in 10.0 mi NNE 9.2 mph - N/A   Scattered Clouds
2:53 AM 64.9 °F 53.1 °F 65% 30.01 in 10.0 mi NNE 6.9 mph - N/A   Clear
3:53 AM - - N/A% 30.05 in 10.0 mi NNE 6.9 mph - N/A   Unknown
4:53 AM 59.0 °F 46.9 °F 64% 30.04 in 10.0 mi NNE 5.8 mph - N/A   Clear
5:53 AM 57.0 °F 46.9 °F 69% 30.06 in 10.0 mi North 3.5 mph - N/A   Clear
6:53 AM 57.0 °F 46.9 °F 69% 30.08 in 10.0 mi North 6.9 mph - N/A   Clear
7:53 AM 59.0 °F 48.0 °F 67% 30.09 in 10.0 mi NNE 5.8 mph - N/A   Clear
8:53 AM 63.0 °F 48.9 °F 60% 30.10 in 10.0 mi NE 9.2 mph - N/A   Clear
9:53 AM 68.0 °F 50.0 °F 52% 30.10 in 10.0 mi ENE 8.1 mph - N/A   Clear
10:53 AM 73.0 °F 46.0 °F 38% 30.10 in 10.0 mi NNE 9.2 mph 18.4 mph N/A   Clear
11:53 AM 73.9 °F 44.1 °F 34% 30.09 in 10.0 mi NE 8.1 mph 19.6 mph N/A   Clear
12:53 PM 75.9 °F 43.0 °F 31% 30.09 in 10.0 mi ENE 8.1 mph - N/A   Clear
1:53 PM 75.9 °F 42.1 °F 30% 30.09 in 10.0 mi Variable 6.9 mph 17.3 mph N/A   Clear
2:53 PM 78.1 °F 42.1 °F 28% 30.08 in 10.0 mi NE 8.1 mph - N/A   Clear
3:53 PM 78.1 °F 42.1 °F 28% 30.08 in 10.0 mi Variable 5.8 mph - N/A   Clear
4:53 PM 75.9 °F 52.0 °F 43% 30.06 in 10.0 mi WNW 12.7 mph 19.6 mph N/A   Clear
5:53 PM 73.9 °F 51.1 °F 45% 30.06 in 10.0 mi NW 12.7 mph 20.7 mph N/A   Clear
6:53 PM 73.0 °F 51.1 °F 46% 30.05 in 10.0 mi NW 12.7 mph 18.4 mph N/A   Clear
7:53 PM 73.0 °F 51.1 °F 46% 30.04 in 10.0 mi NW 9.2 mph - N/A   Clear
8:53 PM 71.1 °F 51.1 °F 49% 30.04 in 10.0 mi NW 8.1 mph - N/A   Clear
9:53 PM 69.1 °F 48.9 °F 49% 30.04 in 10.0 mi NNW 5.8 mph - N/A   Clear
10:53 PM 66.9 °F 48.0 °F 51% 30.06 in 10.0 mi Variable 3.5 mph - N/A   Clear
11:53 PM 64.9 °F 48.0 °F 54% 30.07 in 10.0 mi NNE 6.9 mph - N/A   Clear